Location: Auneuil
(49.3703°N, 1.9971°E)
Time: 12:27:24
(UTC+00:00)

Daily predictions for brighter satellites

Satellite Brightness Start Highest point End
(mag) Time Altitude Azimuth Time Altitude Azimuth Time Altitude Azimuth
Cosmos 482 Debris 3.9 20:06:49 10° W 20:09:09 62° NNW 20:12:35 10° ENE
Cosmos 2016 Rocket 4.1 20:04:21 10° S 20:10:41 85° E 20:17:07 10° N
Cosmos 2173 Rocket 4.5 20:05:02 10° SSW 20:11:09 66° WNW 20:17:15 10° N
Meteor 1-14 Rocket 4.4 20:06:24 10° N 20:12:24 68° ENE 20:18:14 10° SSE
OBJECT-B 3.7 20:11:23 10° WSW 20:12:50 13° W 20:14:19 10° WNW
H-2A R/B 2.0 20:13:03 10° NNE 20:17:11 85° WNW 20:21:16 10° SSW
SL-4 R/B 2.7 20:12:46 10° W 20:17:23 64° N 20:21:43 10° E
CENTAUR R/B 3.3 20:10:29 10° NW 20:18:34 85° NE 20:27:37 10° SE
Cosmos 2233 Rocket 4.1 20:16:20 10° S 20:22:34 65° E 20:28:50 10° NNE
SPOT 5 4.0 20:18:14 10° SE 20:23:03 35° ENE 20:27:47 10° N
ATLAS 5 CENTAUR R/B 4.1 20:19:09 10° WNW 20:23:39 25° WSW 20:28:46 10° SSW
MetOp-B 4.2 20:18:55 10° SSE 20:24:13 68° ENE 20:29:34 10° N
Resurs 01 Rocket 1.7 20:20:02 10° S 20:24:26 80° WSW 20:28:52 10° NNW
Cosmos 2061 Rocket 4.1 20:19:30 10° S 20:25:44 87° WNW 20:31:59 10° N
BREEZE-M (TANK) 3.8 20:24:00 10° SW 20:27:32 54° SE 20:39:34 10° ENE
Cosmos 1328 Rocket 4.3 20:24:01 10° SSE 20:27:51 32° E 20:31:43 10° NNE
Cosmos 2263 Rocket 4.3 20:27:07 10° N 20:30:34 16° NNE 20:34:00 10° ENE
Cosmos 1743 4.3 20:30:20 10° NNE 20:33:19 21° ENE 20:36:03 11° ESE
CZ-4B R/B 1.5 20:31:10 10° N 20:34:25 72° WNW 20:37:38 10° SSW
ISS -3.8 20:31:14 10° WSW 20:34:36 86° SSE 20:37:57 10° ENE
Cosmos 2227 Rocket 2.9 20:29:30 10° NNW 20:34:57 44° NE 20:40:08 11° SE
Cosmos 1814 Rocket 4.0 20:30:21 10° NNW 20:35:31 84° ENE 20:40:36 10° SSE
SPOT 1/Viking Rocket 3.7 20:30:36 10° SSE 20:35:47 79° WSW 20:41:00 10° NNW
Cosmos 1315 Rocket 3.0 20:33:36 10° N 20:37:42 63° ENE 20:41:34 11° SSE
Spot 2 Rocket 3.9 20:35:18 11° SE 20:39:56 48° ENE 20:44:47 10° N
USA 276 4.3 20:38:27 10° WSW 20:40:12 15° SW 20:41:57 10° S
Meteor 1-11 Rocket 4.2 20:35:19 10° N 20:41:09 52° ENE 20:46:32 12° SSE
Cosmos 1666 Rocket 3.5 20:37:29 10° N 20:41:53 80° E 20:46:16 10° SSE
Cosmos 1850 Rocket 4.4 20:36:48 10° SSW 20:42:06 71° WNW 20:47:29 10° NNE
USA 215 4.0 20:44:59 10° ENE 20:50:32 29° SE 20:56:03 10° S
NOSS 7 (E) 4.4 20:47:27 10° SW 20:51:31 74° SE 20:54:44 10° NE
Cosmos 1980 Rocket 4.0 20:50:55 11° ESE 20:52:43 13° E 20:55:09 10° ENE
Cosmos 2208 Rocket 4.1 20:52:01 10° NNW 20:57:31 80° ENE 21:02:03 15° SSE
Cosmos 1633 Rocket 3.1 20:53:08 10° N 20:57:34 86° W 21:01:37 12° S
Cosmos 1470 Rocket 3.6 20:56:25 10° N 21:00:46 62° ENE 21:04:04 17° SSE
Genesis I 3.5 20:58:34 10° SSW 21:02:26 48° ESE 21:06:24 10° NE
Terra 2.3 20:59:20 16° SE 21:02:57 49° ENE 21:07:32 10° N
Cosmos 1656 3.7 20:59:02 10° S 21:04:31 60° ESE 21:09:58 10° NE
Nadezhda 4 Rocket 4.5 20:59:44 10° N 21:05:48 47° ENE 21:10:24 17° SE
Helios 1A Rocket 2.9 21:02:48 15° SSE 21:06:07 86° WSW 21:10:09 10° NNW
ARIANE 5 R/B 3.2 21:04:58 17° SE 21:08:03 44° ENE 21:12:20 10° N
ATLAS 2AS CENTAUR R/B 4.4 21:07:42 14° ESE 21:09:57 15° ESE 21:14:03 10° ENE
Cosmos 1340 3.5 21:08:18 20° SE 21:10:10 32° E 21:13:33 10° NNE
USA 245 4.5 21:05:53 11° S 21:10:54 70° WSW 21:17:03 10° NNW
Cosmos 2297 Rocket 2.3 21:07:40 10° NNW 21:13:21 77° WSW 21:17:43 17° SSE
Cosmos 1151 Rocket 3.6 21:09:08 10° SSW 21:13:22 58° WNW 21:17:37 10° N
NOSS 3-4 (A) 3.9 21:08:21 10° S 21:13:28 36° ESE 21:18:56 10° NE
NOSS 3-4 (C) 3.9 21:08:26 10° S 21:13:34 35° ESE 21:19:02 10° NE
Cosmos 1697 Rocket 3.3 21:10:19 14° SSE 21:14:38 36° ESE 21:19:47 10° NE
SJ 16-02 3.3 21:15:05 12° E 21:15:39 12° E 21:17:21 10° ENE
Cosmos 1515 Rocket 3.7 21:15:06 17° S 21:18:18 57° E 21:22:37 10° NNE
Aureole 1 Rocket 3.6 21:17:56 22° ESE 21:18:26 23° ESE 21:21:00 10° NE
Cosmos 1536 2.7 21:19:06 10° N 21:23:08 85° E 21:25:40 22° SSE
Cosmos 389 Rocket 2.6 21:20:00 10° N 21:23:25 56° ENE 21:25:05 27° SE
SPOT 3 Rocket 4.3 21:22:45 10° S 21:27:37 47° W 21:32:35 10° NNW
USA 267 3.6 21:21:17 10° ESE 21:27:45 66° NNE 21:34:13 10° WNW
Cosmos 1869 Rocket 4.4 21:23:53 10° N 21:28:04 37° ENE 21:30:23 22° SE
Gbstr 26 Del rocket 4.5 21:21:22 10° WNW 21:28:16 48° SW 21:32:07 21° SSE
EXPRESS MD2 3.2 21:23:57 10° WNW 21:29:18 69° SSW 21:30:52 28° ESE
Geosat 4.0 21:30:45 22° SSE 21:34:04 82° WSW 21:39:08 10° NNW
NOSS 3-2 (C) 4.3 21:26:54 10° NW 21:34:17 62° SW 21:40:33 19° SSE
Okean 1 4.0 21:35:04 27° SE 21:36:33 37° E 21:40:16 10° NNE
Cosmos 2034 Rocket 4.1 21:32:14 19° SSE 21:36:48 60° E 21:43:01 10° NNE
Cosmos 405 3.8 21:34:18 10° NNW 21:37:33 43° W 21:39:33 20° SSW
Cosmos 968 Rocket 3.6 21:32:50 10° SSW 21:38:00 77° WNW 21:43:10 10° NNE
ERS-1 Rocket 3.2 21:34:44 19° S 21:38:24 67° WSW 21:43:27 10° NNW
Cosmos 2219 3.2 21:33:57 10° NNW 21:39:37 78° WSW 21:43:10 23° SSE
Meteor 1-19 Rocket 4.5 21:40:10 23° SSE 21:43:15 48° E 21:48:26 10° NNE
Cosmos 44 4.4 21:43:57 10° WNW 21:47:37 27° WSW 21:49:51 18° SSW
SAR-Lupe-4 3.8 21:44:58 10° NNE 21:48:30 51° E 21:49:37 36° SSE
CZ-2C R/B 3.9 21:45:05 10° NNE 21:49:49 76° WNW 21:53:54 14° SSW
Cosmos 1975 3.9 21:46:15 10° N 21:49:59 33° ENE 21:51:29 25° ESE
ATLAS 3B R/B 4.0 21:45:18 10° NW 21:51:58 38° NNE 21:58:53 10° E
Cosmos 2082 3.7 21:46:30 10° NNW 21:52:11 74° ENE 21:55:25 26° SE
USA 238 DEB 4.5 21:47:48 10° NW 21:54:44 48° WSW 21:59:40 21° S
USA 238 4.4 21:47:55 10° NW 21:54:51 48° WSW 21:59:46 21° S
SL-4 R/B 2.0 21:52:39 10° WNW 21:57:10 87° SSW 21:59:28 26° ESE
CSL-04 DEB 4.2 21:55:22 10° NNE 21:59:18 79° ESE 22:01:10 30° S
Cosmos 1354 Rocket 4.5 21:57:35 28° SSE 21:59:45 43° ESE 22:04:44 10° NE
Cosmos 2344 3.5 21:52:45 10° SSW 22:00:03 58° ESE 22:07:33 10° NE
SPOT 5 4.1 21:57:00 15° SSW 22:01:01 40° W 22:06:00 10° NNW
Cosmos 921 Rocket 3.1 21:58:39 10° NNW 22:03:12 82° ENE 22:05:07 34° SSE
Meteor 2-14 Rocket 4.4 21:59:03 10° NNW 22:05:08 83° W 22:08:49 25° S
CENTAUR R/B 4.4 22:01:46 10° NW 22:08:53 32° WSW 22:15:05 15° SSW
SAR-Lupe-1 4.1 22:05:26 10° NNE 22:09:02 79° WNW 22:10:30 33° SSW
Cosmos 1743 4.0 22:05:39 10° NNW 22:09:06 33° W 22:11:03 20° SW
ISS -3.1 22:08:13 10° W 22:11:32 55° N 22:14:34 12° ENE
Cosmos 1378 3.5 22:11:13 40° ESE 22:11:47 44° E 22:15:18 10° NNE
Cosmos 1486 Rocket 4.1 22:07:18 15° SSW 22:11:49 81° WNW 22:17:09 10° NNE
Meteor 2-4 Rocket 4.2 22:11:44 29° SSE 22:14:21 49° E 22:19:51 10° NNE
ALOS 2 4.1 22:12:51 19° ESE 22:14:46 26° ENE 22:18:25 10° N
Cosmos 2263 Rocket 2.5 22:10:11 10° NNW 22:15:44 59° ENE 22:18:44 27° SE
Meteor 1-18 Rocket 4.4 22:13:20 30° SSE 22:16:11 61° E 22:21:47 10° NNE
Cosmos 2227 Rocket 3.2 22:13:46 10° NW 22:18:56 37° WSW 22:21:57 22° SSW
Cosmos 2369 3.6 22:22:36 25° SSW 22:26:00 74° ESE 22:31:40 10° NNE
Cosmos 1184 Rocket 4.3 22:27:56 21° WSW 22:29:10 29° WNW 22:31:55 10° N
Cosmos 2228 Rocket 3.2 22:27:54 33° SSW 22:29:56 81° W 22:34:33 10° N
Cosmos 773 Rocket 3.9 22:24:45 10° NNW 22:30:02 85° WSW 22:32:11 37° SSE
BREEZE-M DEB (TANK) 2.8 22:28:08 10° W 22:35:15 - E 22:29:34 37° W
Cosmos 1733 Rocket 3.4 22:26:33 10° N 22:30:57 56° ENE 22:32:19 39° SE
Timation 2 Rocket 4.1 22:24:56 10° NNW 22:31:25 74° WSW 22:34:49 31° SSE
ATLAS CENTAUR R/B 4.5 22:28:59 10° NNW 22:32:07 16° NNE 22:35:12 10° ENE
Spot 4 4.1 22:30:58 35° SE 22:32:52 60° ENE 22:37:36 10° N
Cosmos 2360 4.5 22:27:49 10° SW 22:33:24 68° WNW 22:39:06 10° NNE
USA 215 3.2 22:27:33 10° ENE 22:34:09 82° SE 22:40:44 10° SW
Cosmos 1980 Rocket 2.1 22:32:37 28° SSW 22:35:42 76° ESE 22:41:24 10° NNE
Cosmos 1862 Rocket 4.1 22:37:46 38° SE 22:38:43 44° E 22:42:59 10° NNE
Cosmos 2322 Rocket 3.8 22:38:33 18° ESE 22:39:17 18° E 22:43:00 10° ENE
Cosmos 1503 Rocket 4.1 22:36:12 24° SSW 22:39:26 79° WNW 22:44:48 10° NNE
Terra 3.6 22:38:13 15° SW 22:40:57 23° W 22:44:46 10° NW
Cosmos 1092 Rocket 4.2 22:35:17 10° NNW 22:41:27 65° W 22:44:41 29° SSW
Cosmos 1538 Rocket 4.3 22:38:31 10° NNW 22:43:45 58° ENE 22:46:02 32° SE
Meteor 2-8 Rocket 4.4 22:41:35 32° S 22:44:35 80° E 22:50:42 10° NNE
ARIANE 5 R/B 4.4 22:42:30 16° SW 22:44:42 23° W 22:48:19 10° NW
RESURS DK-1 2.9 22:45:41 40° ESE 22:45:43 40° ESE 22:49:36 10° NE
Cosmos 2292 Rocket 3.7 22:43:37 10° NNW 22:46:59 39° W 22:47:23 37° WSW
Cosmos 1634 Rocket 4.0 22:44:09 30° S 22:47:29 87° W 22:53:44 10° N
Cosmos 2227 4.4 22:42:55 10° NNW 22:48:41 71° ENE 22:51:25 32° SE
GRACE-FO 1 4.4 22:48:52 10° N 22:52:30 86° W 22:52:55 68° S
GRACE-FO 2 4.4 22:49:18 10° N 22:52:55 85° W 22:53:21 68° SSW
SJ 16-02 1.3 22:52:00 41° SSW 22:53:31 82° WNW 22:57:55 10° NNE
Cosmos 2297 Rocket 4.4 22:53:54 10° WNW 22:56:24 13° W 22:58:54 10° WSW
Cosmos 1697 Rocket 3.7 22:53:07 10° SW 22:58:31 45° NW 23:03:58 10° NNE
Cosmos 1844 Rocket 4.0 22:53:40 10° NNW 22:58:45 34° NE 23:02:53 14° ESE
ATLAS 2AS CENTAUR R/B 3.0 22:55:03 26° SSW 22:59:38 63° ESE 23:07:04 10° NE
Iridium 4 Rocket 3.7 22:55:34 10° N 22:59:41 43° E 23:00:45 37° ESE
Cosmos 1346 Rocket 2.7 23:02:31 58° SSW 23:03:17 86° WNW 23:07:20 10° N
Meteor 2-15 4.4 23:00:36 33° SSW 23:03:33 83° W 23:09:39 10° N
NOSS 3-4 (A) 4.0 22:58:23 10° WSW 23:04:03 56° NW 23:10:19 10° NE
NOSS 3-4 (C) 4.0 22:58:27 10° WSW 23:04:09 56° NW 23:10:25 10° NE
BREEZE-M DEB (TANK) 3.3 23:05:14 10° W 23:19:58 - SE 23:06:47 31° WSW
ERS-2 2.2 23:06:37 10° NNE 23:10:12 57° ESE 23:10:13 57° ESE
USA 267 3.4 23:08:07 34° SSE 23:10:53 56° SW 23:17:19 10° WNW
Iridium 2 3.7 23:07:10 10° N 23:10:53 64° W 23:11:20 58° SW
Meteor 2-10 4.3 23:06:53 10° N 23:12:17 62° ENE 23:14:12 38° SE
SL-16 R/B 2.7 23:11:07 37° SE 23:12:29 43° ESE 23:17:50 10° NE
H-2A R/B 3.3 23:14:40 10° NNE 23:18:46 87° WNW 23:19:32 58° SSW
Cosmos 1733 3.0 23:21:20 10° NNW 23:25:09 80° W 23:25:27 72° SSW
ADEOS Rocket 2.8 23:23:29 37° SSE 23:25:43 74° ENE 23:31:30 10° NNW
Cosmos 1975 4.4 23:22:54 10° NW 23:26:14 24° W 23:27:10 22° WSW
Cosmos 1680 Rocket 4.2 23:22:09 10° NNW 23:27:18 48° ENE 23:29:58 26° ESE
Cosmos 2278 3.8 23:24:59 28° SW 23:28:00 73° WNW 23:33:44 10° NNE
SL-4 R/B 3.6 23:32:39 10° W 23:34:54 22° WSW 23:34:54 22° WSW
Cosmos 1726 2.2 23:32:50 10° N 23:36:29 61° ENE 23:36:43 59° E
Cosmos 2242 Rocket 4.0 23:40:47 45° SE 23:41:42 53° E 23:46:10 10° NNE
NOSS 2-1 (E) 4.0 23:44:14 33° ENE 23:44:14 33° ENE 23:46:24 10° NE
ATLAS 3B R/B 2.8 23:36:05 10° NW 23:43:27 84° SW 23:47:59 27° SE
Cosmos 1842 4.0 23:43:10 37° ESE 23:43:28 38° E 23:47:07 10° NNE
Meteor 1-23 Rocket 4.5 23:42:22 39° SSE 23:44:23 60° E 23:50:07 10° NNE
Cosmos 1898 Rocket 4.1 23:44:55 37° SE 23:46:11 44° ESE 23:51:14 10° NE
Meteor 1-4 Rocket 3.1 23:43:41 10° NNW 23:46:46 42° W 23:46:46 42° W
Cosmos 1703 Rocket 3.5 23:46:14 56° SSE 23:47:06 77° E 23:51:35 10° NNE
ISS -2.9 23:45:06 10° WNW 23:47:28 42° WNW 23:47:28 42° WNW
Cosmos 2360 Rocket 2.9 23:47:35 34° SE 23:48:56 39° ESE 23:54:09 10° NE
Meteor 1-12 Rocket 4.4 23:44:10 10° NNW 23:50:10 72° W 23:52:21 40° S
Cosmos 2266 Rocket 4.0 23:44:35 10° NNW 23:50:54 72° W 23:53:23 38° S
ALOS 2 3.3 23:50:14 37° WSW 23:50:56 40° W 23:55:06 10° NNW
Cosmos 44 Rocket 3.3 23:47:10 10° NW 23:51:46 53° WSW 23:52:19 50° SSW
ASTEX 1 4.0 23:50:28 10° NNE 23:55:11 46° E 23:56:36 36° SE
Okean 1-7 3.0 23:54:41 57° SSW 23:55:33 82° W 23:59:58 10° N
